Regional Weather Roundup
Issued by NWS Sterling, VA

Home | Current Version | Previous Version | Graphics & Text | Print | Product List | Glossary On
Versions: 1 2 3 4 5 6 7 8 9 10 11 12 13 14 15 16 17 18 19 20 21 22 23 24 25 26 27
000
ASUS41 KLWX 201110
RWRLWX

REGIONAL WEATHER ROUNDUP
NATIONAL WEATHER SERVICE BALTIMORE MD/WASHINGTON DC
600 AM EST MON FEB 20 2017

Note: "FAIR" indicates few or no clouds below 12,000 feet
with no significant weather and/or obstructions to visibility.
 TC=TEMPERATURE CELSIUS

 * =Non NWS site. Station does not report precipitation (e.g. rain,
    snow, etc.), thunder, or fog.

DCZ001-MDZ009-015-VAZ040>042-051-053>054-201200-
WASHINGTON METRO

CITY           SKY/WX    TMP DP  RH WIND       PRES   REMARKS
WASHINGTON NAT PTCLDY    44  41  89 S3        30.15R
DULLES         PTCLDY    49  40  71 NW9       30.15R
ANDREWS AFB    CLEAR     50  40  70 NW3       30.14R
FT BELVOIR     PTCLDY    38  36  91 CALM      30.16R
QUANTICO       CLEAR     41  39  93 CALM      30.18R
COLLEGE PARK*  CLEAR     39  37  93 CALM      30.15R
LEESBURG*      CLEAR     45  43  93 MISG      30.16R
MANASSAS*      CLEAR     38  36  92 SE3       30.16R
GAITHERSBURG*  CLEAR     46  36  66 NW3       30.19R

$$

MDZ006>007-011-014-201200-
BALTIMORE METRO

CITY           SKY/WX    TMP DP  RH WIND       PRES   REMARKS
BWI AIRPORT    PTCLDY    41  37  86 CALM      30.14R
MD SCIENCE CTR   N/A     50  37  61 MISG      30.14R
MARTIN STATE   CLEAR     39  37  93 W5        30.16
ANNAPOLIS      CLEAR     42  40  92 CALM      30.14R
FORT MEADE*    CLEAR     34  34 100 CALM      30.16S

$$

MDZ012-015-019>023-201200-
MARYLAND EASTERN SHORE

CITY           SKY/WX    TMP DP  RH WIND       PRES   REMARKS
OCEAN CITY     CLEAR     46  39  76 NW6       30.13R
SALISBURY      CLEAR     46  41  82 NW5       30.12R
BAY BRIDGE AP* CLEAR     45  39  81 N3        30.14R
CAMBRIDGE*     CLEAR     45  41  87 CALM      30.14R
EASTON*        CLEAR     45  40  84 CALM      30.17R

$$

MDZ017>025-201200-
SOUTHERN MARYLAND

CITY           SKY/WX    TMP DP  RH WIND       PRES   REMARKS
PATUXENT RIVER CLEAR     48  42  80 W7        30.14R
ST INIGOES     CLEAR     50  42  74 NW6       30.14R
LEONARDTOWN*   CLEAR     46  41  81 W3        30.17R

$$

MDZ003>005-201200-
NORTH CENTRAL MARYLAND

CITY           SKY/WX    TMP DP  RH WIND       PRES   REMARKS
FREDERICK*     CLEAR     41  39  93 CALM      30.18R
HAGERSTOWN APT CLEAR     47  38  71 NW8       30.16R
WESTMINSTER*   CLEAR     48  36  61 W7        30.14R

$$

MDZ501>502-201200-
WESTERN MARYLAND

CITY           SKY/WX    TMP DP  RH WIND       PRES   REMARKS
OAKLAND*       CLOUDY    41  39  93 W5        30.18R FOG
CUMBERLAND*    CLEAR     50  41  71 CALM      30.22R

$$

VAZ025>031-201200-
SHENANDOAH VALLEY

CITY           SKY/WX    TMP DP  RH WIND       PRES   REMARKS
WINCHESTER*    CLEAR     43  36  75 CALM      30.16R
FRONT ROYAL*   CLEAR     41  36  81 S5        30.16R
LURAY*         CLEAR     37  36  93 SW3       30.18R
NEW MARKET*    CLEAR     32  30  93 SW3       30.18R
STAUNTON*      CLEAR     29  26  89 CALM      30.21R
WAYNESBORO*    CLEAR     35  33  93 CALM      30.18S

$$

WVZ021-048>050-054>055-201200-
EASTERN WEST VIRGINIA PANHANDLE

CITY           SKY/WX    TMP DP  RH WIND       PRES   REMARKS
MARTINSBURG    CLEAR     42  37  82 CALM      30.16R
PETERSBURG*    FOG       34  33  97 CALM      30.21R VSB 1

$$

VAZ036>039-050-201200-
CENTRAL FOOTHILLS

CITY           SKY/WX    TMP DP  RH WIND       PRES   REMARKS
CHARLOTTESVILL CLEAR     54  35  48 SW3       30.15R
CULPEPER*      CLEAR     34  32  94 CALM      30.17R
ORANGE*        CLEAR     34  32  93 CALM      30.17R
GORDONSVILLE*  CLEAR     32  31  96 CALM      30.15R
WARRENTON*     CLEAR     35  31  87 CALM      30.15R

$$

VAZ055>057-201200-
NORTH AND CENTRAL PIEDMONT

CITY           SKY/WX    TMP DP  RH WIND       PRES   REMARKS
FREDERICKSBRG* CLEAR     38  37  93 CALM      30.16R
STAFFORD*      CLEAR     35  35 100 CALM      30.21R

$$

NCZ024-NYZ072-PAZ021-071-VAZ022-071-201200-
OTHER REGIONAL OBSERVATIONS

CITY           SKY/WX    TMP DP  RH WIND       PRES   REMARKS
NEW YORK CITY  CLEAR     45  31  58 CALM      30.13R
PHILADELPHIA   CLEAR     44  32  62 N9        30.14R
PITTSBURGH     FOG       35  35 100 CALM      30.21R VSB 1/2
ROANOKE        CLEAR     36  34  92 NW6       30.22R
RICHMOND       CLEAR     46  40  79 NE9       30.16R
RALEIGH        PTCLDY    43  40  89 CALM      30.16R

$$

ANZ530>537-201200-
MARINE OBSERVATIONS

STATION/POSITION TIME  TEMP    WIND        PRES
                       AIR SEA DIR/SP/G
                 (UTC) (F)     (DEG/KT/KT) (MB)
THOMAS PT LIGHT  1100   52 41  320/  8/  8   N/A
BALT KEY BRIDGE  1042   48     290/  2/  2 1020.6R
COVE POINT       1042   53     340/ 12/ 14 1021.0R
LEWISETTA        1042   54 45  320/  9/ 11 1020.7R
SOLOMONS ISLAND  1042   49 42  320/  3/  4   N/A
PINEY POINT      1048          320/ 11/ 13   N/A

$$





USA.gov is the U.S. government's official web portal to all federal, state and local government web resources and services.